Other Public Products
Issued by NWS Charleston, SC

Home | Current Version | Previous Version | Text Only | Print | Product List | Glossary On
Versions: 1 2 3 4 5 6 7 8 9 10 11 12 13 14 15 16 17 18 19 20 21 22 23 24 25 26 27 28 29 30 31 32 33 34 35 36 37 38 39 40 41 42 43 44 45 46 47 48 49 50
000
FPUS82 KCHS 200427
OPUCHS

TEST...KCHS/KSAV Gateway Observations...TEST
National Weather Service Charleston SC
1100 PM EST SUN NOV 19 2017

NOTE: "fair" indicates few or no clouds below 12,000 feet with no
significant weather and/or obstructions to visibility.

SCZ050-WAZ558-NCZ071-TXZ119-213-PAZ071-DCZ001-FLZ074-172-MI076-
NYZ176-178-MAZ016-IL014-TNZ027-NJZ106-GAZ044-MD014-200500-

...Gateway Observations for Charleston International...

CITY           SKY/WX    TMP DP  RH WIND       PRES   REMARKS
Chas Airport   CLEAR     45  38  76 NW6       30.08R
Seattle        LGT RAIN  42  40  92 CALM      29.63F
Charlotte      CLEAR     38  28  67 NW3       30.09R
Dallas DFW     PTCLDY    48  32  53 CALM      30.22S
Dallas Love    PTCLDY    47  37  68 E3        30.24S
Philladelphia  PTCLDY    41  24  51 W12       29.88R
Wash National  MOCLDY    45  27  49 W15G23    29.97R
Baltimore      CLOUDY    42  29  59 W13       29.93R
Miami          CLEAR     73  68  84 W3        29.98R
Detroit        CLOUDY    31  20  63 SW8       30.01R WCI  23
Newark         LGT RAIN  41  32  70 NW17G28   29.80R
Laguardia      LGT RAIN  40  33  76 W13       29.78R WCI  32
J F K          CLOUDY    42  31  64 NW20G29   29.80R
Boston Logan   PTCLDY    39  24  55 W16       29.62S WCI  30
Ft. Lauderdale PTCLDY    72  67  84 W3        29.97R
Chicago O`Hare PTCLDY    31  19  61 SW13      30.06S WCI  21
Chicago Midway PTCLDY    31  21  66 SW8       30.08S WCI  23
Houston Bush   MOCLDY    48  39  71 CALM      30.25S
Houston Hobby  CLOUDY    54  36  50 NE7       30.24S
Nashville      CLEAR     33  25  72 CALM      30.25R
Atlanta        CLEAR     41  30  65 NW9       30.15R

$$

GAZ044-118-TXZ119-213-NCZ071-DCZ001-MDZ014-506-PAZ021-071-NJZ106-
NYZ176-178-MAZ106-OHZ011-021-055-MIZ076-KYZ091-ILZ014-INZ047-
MNZ060-ONZ431-200500-

...Gateway Observations for Savannah International...

CITY           SKY/WX    TMP DP  RH WIND       PRES   REMARKS
Savannah Arpt  CLEAR     47  34  60 NW6       30.10R
Atlanta        CLEAR     41  30  65 NW9       30.15R
Charlotte      CLEAR     38  28  67 NW3       30.09R
Dallas DFW     PTCLDY    48  32  53 CALM      30.22S
Houston Bush   MOCLDY    48  39  71 CALM      30.25S
Wash National  MOCLDY    45  27  49 W15G23    29.97R
Wash Dulles    MOCLDY    42  28  57 W15G25    29.96R
Baltimore      CLOUDY    42  29  59 W13       29.93R
Philadelphia   PTCLDY    41  24  51 W12       29.88R
Newark         LGT RAIN  41  32  70 NW17G28   29.80R
Laguardia      LGT RAIN  40  33  76 W13       29.78R WCI  32
J F K          CLOUDY    42  31  64 NW20G29   29.80R
Boston         PTCLDY    39  24  55 W16       29.62S WCI  30
Pittsburg      FLURRIES  33  22  63 W13       29.99R WCI  24
Akron          FLURRIES  32  21  64 W15G29    30.01R WCI  22
Cleveland      CLOUDY    32  22  66 W16G26    30.05R WCI  21
Cincinnati     CLEAR     29  24  82 W5        30.16S WCI  24
Columbus       CLOUDY    30  21  69 W12G18    30.14S WCI  21
Detroit        CLOUDY    31  20  63 SW8       30.01R WCI  23
Chicago O`Hare PTCLDY    31  19  61 SW13      30.06S WCI  21
Minneapolis    CLOUDY    38  26  62 SW6       29.81F WCI  33
Indianapolis   CLEAR     26  21  81 SW7       30.16R WCI  18
Toronto Canada MOCLDY    28  23  80 W7        29.83S WCI  21

$$




USA.gov is the U.S. government's official web portal to all federal, state and local government web resources and services.